When you browse on this site, cookies collect data to enhance your experience and personalize the content and advertising you see.
Visit our Privacy Policy to learn more. By continuing to use the site, you agree to this use of cookies and data.
  • In Romania
  • List of Countries
  • For 7 days
  • Water Temperature
  • Satellite Maps
  • Weather Map
  • Weather Widgets
  • user-avatar
    Login

    Hourly Weather Coleraine

    Today, 18 January, Friday

    Time Temperature Precipitation Wind Pressure Humidity
    00:00 -1°C° 0 mm 7 mps 758 mmHg 73%
    01:00 -1°C° 0 mm 7 mps 757 mmHg 73%
    02:00 -1°C° 0 mm 7 mps 757 mmHg 74%
    03:00 -1°C° 0 mm 7 mps 756 mmHg 74%
    04:00 0°C° 0.3 mm 7 mps 755 mmHg 76%
    05:00 0°C° 0.3 mm 8 mps 755 mmHg 78%
    06:00 +1°C° 0 mm 8 mps 754 mmHg 79%
    07:00 +1°C° 0.5 mm 9 mps 753 mmHg 81%
    08:00 +1°C° 0.5 mm 9 mps 753 mmHg 84%
    09:00 +2°C° 0.5 mm 10 mps 752 mmHg 87%
    10:00 +2°C° 0 mm 10 mps 752 mmHg 88%
    11:00 +2°C° 0 mm 10 mps 752 mmHg 89%
    12:00 +3°C° 0 mm 10 mps 752 mmHg 89%
    13:00 +3°C° 0 mm 9 mps 751 mmHg 91%
    14:00 +4°C° 0 mm 8 mps 751 mmHg 92%
    15:00 +4°C° 0 mm 7 mps 750 mmHg 93%
    16:00 +4°C° 0 mm 6 mps 750 mmHg 93%
    17:00 +5°C° 0 mm 5 mps 750 mmHg 94%
    18:00 +5°C° 0 mm 4 mps 750 mmHg 95%
    19:00 +4°C° 0 mm 4 mps 750 mmHg 95%
    20:00 +4°C° 0 mm 3 mps 750 mmHg 95%
    21:00 +3°C° 0 mm 3 mps 750 mmHg 95%
    22:00 +3°C° 0 mm 3 mps 750 mmHg 95%
    23:00 +3°C° 0 mm 3 mps 750 mmHg 95%

    Tomorrow, 19 January, Saturday

    Time Temperature Precipitation Wind Pressure Humidity
    00:00 +3°C° 0 mm 3 mps 750 mmHg 95%
    01:00 +3°C° 0 mm 3 mps 750 mmHg 95%
    02:00 +3°C° 0 mm 3 mps 750 mmHg 95%
    03:00 +3°C° 0 mm 3 mps 750 mmHg 95%
    04:00 +3°C° 0.1 mm 3 mps 750 mmHg 95%
    05:00 +4°C° 0.1 mm 3 mps 750 mmHg 95%
    06:00 +4°C° 0.1 mm 3 mps 750 mmHg 95%
    07:00 +4°C° 0.2 mm 3 mps 751 mmHg 96%
    08:00 +4°C° 0.2 mm 3 mps 751 mmHg 96%
    09:00 +4°C° 0.2 mm 4 mps 751 mmHg 96%
    10:00 +5°C° 0.1 mm 4 mps 752 mmHg 95%
    11:00 +5°C° 0.1 mm 4 mps 752 mmHg 95%
    12:00 +6°C° 0.1 mm 4 mps 752 mmHg 94%
    13:00 +6°C° 0.1 mm 4 mps 752 mmHg 94%
    14:00 +6°C° 0.1 mm 4 mps 753 mmHg 94%
    15:00 +6°C° 0.1 mm 4 mps 753 mmHg 95%
    16:00 +7°C° 0.1 mm 3 mps 753 mmHg 95%
    17:00 +7°C° 0.1 mm 3 mps 754 mmHg 95%
    18:00 +5°C° 0.1 mm 3 mps 754 mmHg 96%
    19:00 +6°C° 0.1 mm 2 mps 754 mmHg 96%
    20:00 +6°C° 0.1 mm 2 mps 755 mmHg 96%
    21:00 +6°C° 0.1 mm 2 mps 755 mmHg 96%
    22:00 +6°C° 0.1 mm 2 mps 756 mmHg 96%
    23:00 +7°C° 0.1 mm 1 mps 756 mmHg 96%

    Day after tomorrow, 20 January, Sunday

    Time Temperature Precipitation Wind Pressure Humidity
    00:00 +7°C° 0.1 mm 1 mps 756 mmHg 96%
    01:00 +6°C° 0 mm 1 mps 757 mmHg 96%
    02:00 +6°C° 0 mm 1 mps 757 mmHg 96%
    03:00 +6°C° 0 mm 1 mps 758 mmHg 97%
    04:00 +5°C° 0.2 mm 2 mps 759 mmHg 96%
    05:00 +5°C° 0.2 mm 3 mps 759 mmHg 95%
    06:00 +5°C° 0.2 mm 5 mps 760 mmHg 94%
    07:00 +4°C° 0.3 mm 6 mps 761 mmHg 91%
    08:00 +2°C° 0.3 mm 8 mps 762 mmHg 87%
    09:00 +2°C° 0.3 mm 9 mps 762 mmHg 84%
    10:00 +2°C° 0 mm 9 mps 763 mmHg 81%
    11:00 +2°C° 0 mm 8 mps 764 mmHg 77%
    12:00 +4°C° 0 mm 8 mps 765 mmHg 73%
    13:00 +2°C° 0 mm 8 mps 765 mmHg 73%
    14:00 +3°C° 0 mm 7 mps 765 mmHg 72%
    15:00 +3°C° 0 mm 7 mps 766 mmHg 71%
    16:00 +3°C° 0 mm 6 mps 766 mmHg 73%
    17:00 +2°C° 0 mm 5 mps 767 mmHg 76%
    18:00 +1°C° 0 mm 5 mps 768 mmHg 78%
    19:00 +1°C° 0 mm 4 mps 768 mmHg 78%
    20:00 +1°C° 0 mm 4 mps 768 mmHg 79%
    21:00 +2°C° 0 mm 3 mps 769 mmHg 79%
    22:00 +1°C° 0 mm 3 mps 769 mmHg 81%
    23:00 +1°C° 0 mm 3 mps 769 mmHg 82%

    21 January, Monday

    Time Temperature Precipitation Wind Pressure Humidity
    00:00 +1°C° 0 mm 3 mps 769 mmHg 84%
    01:00 0°C° 0 mm 4 mps 769 mmHg 84%
    02:00 0°C° 0 mm 4 mps 768 mmHg 84%
    03:00 0°C° 0 mm 4 mps 768 mmHg 85%
    04:00 0°C° 0 mm 5 mps 767 mmHg 83%
    05:00 +1°C° 0 mm 6 mps 767 mmHg 82%
    06:00 +1°C° 0 mm 6 mps 766 mmHg 81%
    07:00 0°C° 0 mm 7 mps 765 mmHg 82%
    08:00 0°C° 0 mm 8 mps 764 mmHg 83%
    09:00 0°C° 0 mm 8 mps 763 mmHg 83%
    10:00 +1°C° 0 mm 9 mps 762 mmHg 82%
    11:00 +2°C° 0 mm 10 mps 760 mmHg 81%
    12:00 +3°C° 0 mm 11 mps 759 mmHg 80%
    13:00 +3°C° 0.3 mm 11 mps 757 mmHg 82%
    14:00 +3°C° 0.3 mm 12 mps 755 mmHg 83%
    15:00 +4°C° 0.3 mm 12 mps 753 mmHg 84%
    16:00 +3°C° 1.3 mm 12 mps 753 mmHg 83%
    17:00 +2°C° 1.3 mm 11 mps 753 mmHg 82%
    18:00 +1°C° 1.3 mm 11 mps 752 mmHg 80%
    19:00 0°C° 0.1 mm 10 mps 752 mmHg 80%
    20:00 0°C° 0.1 mm 10 mps 752 mmHg 80%
    21:00 -1°C° 0.1 mm 9 mps 752 mmHg 79%
    22:00 -2°C° 0.5 mm 10 mps 751 mmHg 78%
    23:00 -2°C° 0.5 mm 11 mps 750 mmHg 77%

    22 January, Tuesday

    Time Temperature Precipitation Wind Pressure Humidity
    00:00 -2°C° 0.5 mm 11 mps 749 mmHg 76%
    01:00 -2°C° 0.8 mm 12 mps 749 mmHg 77%
    02:00 -2°C° 0.8 mm 12 mps 748 mmHg 79%
    03:00 -1°C° 0.8 mm 12 mps 748 mmHg 80%
    04:00 -2°C° 0.5 mm 12 mps 748 mmHg 79%
    05:00 -2°C° 0.5 mm 12 mps 748 mmHg 77%
    06:00 -2°C° 0.5 mm 11 mps 748 mmHg 75%
    07:00 -2°C° 0.4 mm 11 mps 748 mmHg 75%
    08:00 -2°C° 0.4 mm 11 mps 748 mmHg 75%
    09:00 -2°C° 0.4 mm 11 mps 748 mmHg 75%
    10:00 -2°C° 0.5 mm 11 mps 748 mmHg 74%
    11:00 -2°C° 0.5 mm 11 mps 748 mmHg 74%
    12:00 -2°C° 0.5 mm 11 mps 748 mmHg 73%
    13:00 -2°C° 0.4 mm 10 mps 748 mmHg 75%
    14:00 -2°C° 0.4 mm 10 mps 748 mmHg 76%
    15:00 -1°C° 0.4 mm 9 mps 748 mmHg 78%
    16:00 -1°C° 0.3 mm 9 mps 748 mmHg 78%
    17:00 -1°C° 0.3 mm 9 mps 748 mmHg 79%
    18:00 -1°C° 0.3 mm 9 mps 747 mmHg 79%
    19:00 -1°C° 0.3 mm 9 mps 747 mmHg 80%
    20:00 -1°C° 0.3 mm 8 mps 747 mmHg 80%
    21:00 -1°C° 0.3 mm 8 mps 747 mmHg 81%
    22:00 -1°C° 0.3 mm 9 mps 747 mmHg 81%
    23:00 -1°C° 0.3 mm 9 mps 747 mmHg 82%

    23 January, Wednesday

    Time Temperature Precipitation Wind Pressure Humidity
    00:00 -1°C° 0.3 mm 9 mps 746 mmHg 82%
    01:00 0°C° 0.5 mm 10 mps 746 mmHg 81%
    02:00 -1°C° 0.5 mm 11 mps 746 mmHg 81%
    03:00 -1°C° 0.5 mm 12 mps 746 mmHg 80%
    04:00 -1°C° 0.4 mm 12 mps 745 mmHg 79%
    05:00 -1°C° 0.4 mm 12 mps 745 mmHg 78%
    06:00 -1°C° 0.4 mm 13 mps 745 mmHg 77%
    07:00 -1°C° 0.4 mm 12 mps 745 mmHg 76%
    08:00 -1°C° 0.4 mm 12 mps 746 mmHg 76%
    09:00 0°C° 0.4 mm 12 mps 746 mmHg 75%
    10:00 0°C° 0.2 mm 12 mps 747 mmHg 75%
    11:00 +1°C° 0.2 mm 11 mps 748 mmHg 76%
    12:00 +1°C° 0.2 mm 10 mps 749 mmHg 76%
    13:00 +1°C° 0 mm 10 mps 750 mmHg 77%
    14:00 +1°C° 0 mm 10 mps 751 mmHg 77%
    15:00 +1°C° 0 mm 9 mps 752 mmHg 78%
    16:00 +2°C° 0.3 mm 10 mps 752 mmHg 79%
    17:00 +2°C° 0.3 mm 10 mps 753 mmHg 80%
    18:00 +3°C° 0.3 mm 11 mps 753 mmHg 82%
    19:00 +3°C° 0.3 mm 10 mps 754 mmHg 82%
    20:00 +3°C° 0.3 mm 9 mps 755 mmHg 83%
    21:00 +2°C° 0.3 mm 9 mps 755 mmHg 83%
    22:00 +2°C° 0.1 mm 8 mps 756 mmHg 83%
    23:00 +2°C° 0.1 mm 8 mps 757 mmHg 82%
    Show more